Location: Newport
(44.6370°N, 124.0520°W)
Time: 14:52:59
(UTC-08:00)

Envisat - Pass Details

Date: 15 October 2017
Orbit: 764 x 766 km, 98.2° (Epoch: 14 December)

Event Time Altitude Azimuth Distance (km) Brightness Sun altitude
Exits shadow 20:03:33 28° 76° (ENE) 1,407 3.8 -17.2°
Maximum altitude 20:04:05 29° 65° (ENE) 1,390 3.9 -17.3°
Drops below altitude 10° 20:08:24 10° 7° (N) 2,315 5.5 -18.1°
Sets 20:10:58 0° 357° (N) 3,246 6.4 -18.5°
